Location: Gensac
(43.2177°N, 1.1313°E)
Time: 17:10:29
(UTC+00:00)

Cosmos 2322 Rocket - Pass Details

Date: 08 December 2025
Orbit: 831 x 850 km, 71.0° (Epoch: 22 January)

Event Time Altitude Azimuth Distance (km) Brightness Sun altitude
Exits shadow 05:02:11 - 352° (N) 2,629 4.6 -23.3°
Reaches altitude 10° 05:02:39 10° 355° (N) 2,484 4.5 -23.3°
Maximum altitude 05:07:27 27° 52° (NE) 1,577 4.0 -22.4°
Drops below altitude 10° 05:12:12 10° 110° (ESE) 2,466 5.8 -21.6°
Sets 05:15:01 0° 122° (ESE) 3,394 6.6 -21.1°
